TimeCDT,TemperatureF,Dew PointF,Humidity,Sea Level PressureIn,VisibilityMPH,Wind Direction,Wind SpeedMPH,Gust SpeedMPH,PrecipitationIn,Events,Conditions,WindDirDegrees,DateUTC
12:52 AM,27.0,24.1,89,30.13,10.0,SE,3.5,-,N/A,,Clear,140,2013-10-27 05:52:00
1:52 AM,26.1,23.0,88,30.11,10.0,ESE,3.5,-,N/A,,Clear,110,2013-10-27 06:52:00
2:52 AM,25.0,23.0,92,30.09,10.0,ESE,4.6,-,N/A,,Clear,120,2013-10-27 07:52:00
3:52 AM,26.1,23.0,88,30.07,10.0,East,6.9,-,N/A,,Clear,90,2013-10-27 08:52:00
4:52 AM,25.0,23.0,92,30.03,10.0,ESE,5.8,-,N/A,,Clear,110,2013-10-27 09:52:00
5:52 AM,27.0,23.0,85,30.02,10.0,ESE,8.1,-,N/A,,Clear,110,2013-10-27 10:52:00
6:52 AM,27.0,24.1,89,29.99,10.0,ESE,11.5,-,N/A,,Clear,120,2013-10-27 11:52:00
7:52 AM,28.0,25.0,88,29.97,10.0,ESE,9.2,-,N/A,,Clear,120,2013-10-27 12:52:00
8:52 AM,30.9,27.0,85,29.96,10.0,ESE,10.4,-,N/A,,Clear,120,2013-10-27 13:52:00
9:52 AM,37.9,32.0,79,29.94,10.0,SE,8.1,-,N/A,,Clear,130,2013-10-27 14:52:00
10:52 AM,48.0,33.1,56,29.92,10.0,South,9.2,-,N/A,,Clear,190,2013-10-27 15:52:00
11:52 AM,55.0,34.0,45,29.90,10.0,SSW,13.8,-,N/A,,Clear,210,2013-10-27 16:52:00
12:52 PM,60.1,36.0,41,29.88,10.0,SSW,6.9,-,N/A,,Clear,210,2013-10-27 17:52:00
1:52 PM,64.9,37.0,36,29.84,10.0,SSW,8.1,-,N/A,,Clear,200,2013-10-27 18:52:00
2:52 PM,-9999,-9999,N/A,29.81,-9999.0,North,-9999.0,-,N/A,,Unknown,0,2013-10-27 19:52:00
3:52 PM,-9999,-9999,N/A,29.80,-9999.0,North,-9999.0,-,N/A,,Unknown,0,2013-10-27 20:52:00
4:52 PM,-9999,-9999,N/A,29.81,-9999.0,North,-9999.0,-,N/A,,Unknown,0,2013-10-27 21:52:00
5:52 PM,-9999,-9999,N/A,29.82,-9999.0,North,-9999.0,-,N/A,,Unknown,0,2013-10-27 22:52:00
6:52 PM,-9999,-9999,N/A,29.85,-9999.0,North,-9999.0,-,N/A,,Unknown,0,2013-10-27 23:52:00
7:52 PM,-9999,-9999,N/A,29.89,-9999.0,North,-9999.0,-,N/A,,Unknown,0,2013-10-28 00:52:00
8:52 PM,-9999,-9999,N/A,29.93,-9999.0,North,-9999.0,-,N/A,,Unknown,0,2013-10-28 01:52:00
9:52 PM,-9999,-9999,N/A,29.96,-9999.0,North,-9999.0,-,N/A,,Unknown,0,2013-10-28 02:52:00
10:52 PM,-9999,-9999,N/A,30.00,-9999.0,North,-9999.0,-,N/A,,Unknown,0,2013-10-28 03:52:00
11:52 PM,-9999,-9999,N/A,30.02,-9999.0,North,-9999.0,-,N/A,,Unknown,0,2013-10-28 04:52:00